Ogden Hill AFB, UT

11:28 AM MDT on September 23, 2017 (GMT -0600)
Hill Air Force Base

Weather History for KHIF - November, 2011

Change the Weather History Date:

Thursday, November 3, 2011

  Actual Average Record
Temperature  
Mean Temperature 39 °F -  
Max Temperature 51 °F 47 °F 60 °F (1999)
Min Temperature 28 °F 33 °F 19 °F (2002)
Degree Days  
Heating Degree Days 26    
Moisture  
Dew Point 20 °F    
Average Humidity 47    
Maximum Humidity 63    
Minimum Humidity 28    
Precipitation  
Precipitation 0.00 in - - ()
Sea Level Pressure  
Sea Level Pressure 30.01 in    
Wind  
Wind Speed 12 mph (East)    
Max Wind Speed 20 mph    
Max Gust Speed 23 mph    
Visibility 10 miles    
Events      
Averages and records for this station are not official NWS values.
T = Trace of Precipitation, MM = Missing Value Source: NWS Daily Summary

Daily Weather History Graph

Daily Weather History Graph

Search for Another Location

Airport or City:

Trip Planner

Search our weather history database for the weather conditions in past years. The results will help you decide how hot, cold, wet, or windy it might be!

Date:

Astronomy

Nov. 03, 2011 Rise Set
Actual Time 8:01 AM MDT 6:21 PM MDT
Civil Twilight 7:32 AM MDT 6:49 PM MDT
Nautical Twilight 6:59 AM MDT 7:22 PM MDT
Astronomical Twilight 6:27 AM MDT 7:54 PM MDT
Moon 2:50 PM MDT (11/3) 1:13 AM MDT (11/3)
Length of Visible Light 11h 17m
Length of Day
10h 20m
First Quarter, 61% of the Moon is Illuminated
Nov 3
First Quarter
Nov 10
Full
Nov 18
Last Quarter
Nov 24
New
Dec 2
First Quarter

Hourly Weather History & Observations

Time (MDT) Temp. Windchill Dew Point Humidity Pressure Visibility Wind Dir Wind Speed Gust Speed Precip Events Conditions
12:55 AM 32.9 °F 23.2 °F 21.0 °F 62% 30.30 in 10.0 mi ENE 13.8 mph 20.7 mph N/A   Clear
1:55 AM 32.2 °F 22.3 °F 19.8 °F 60% 30.25 in 10.0 mi ENE 13.8 mph - N/A   Clear
2:55 AM 32.2 °F 21.4 °F 18.3 °F 57% 30.22 in 10.0 mi ENE 16.1 mph 21.9 mph N/A   Clear
3:55 AM 30.4 °F 20.0 °F 18.7 °F 62% 30.23 in 10.0 mi ENE 13.8 mph - N/A   Clear
4:55 AM 29.7 °F 19.1 °F 18.0 °F 62% 30.21 in 10.0 mi ENE 13.8 mph - N/A   Clear
5:55 AM 28.6 °F 15.6 °F 17.4 °F 63% 30.21 in 10.0 mi ENE 19.6 mph 23.0 mph N/A   Clear
6:55 AM 29.1 °F 17.5 °F 16.9 °F 60% 30.19 in 10.0 mi ENE 16.1 mph - N/A   Clear
7:55 AM 30.7 °F 19.6 °F 15.8 °F 54% 30.16 in 10.0 mi ENE 16.1 mph - N/A   Clear
8:55 AM 30.0 °F 18.3 °F 15.8 °F 56% 30.19 in 10.0 mi ENE 17.3 mph - N/A   Clear
9:55 AM 34.2 °F 25.2 °F 16.5 °F 49% 30.16 in 10.0 mi ENE 12.7 mph - N/A   Partly Cloudy
10:55 AM 38.1 °F 30.7 °F 18.5 °F 45% 30.11 in 10.0 mi ENE 11.5 mph - N/A   Scattered Clouds
11:55 AM 41.9 °F 35.9 °F 19.4 °F 41% 30.07 in 10.0 mi NE 10.4 mph - N/A   Mostly Cloudy
12:55 PM 47.8 °F - 17.2 °F 30% 30.00 in 10.0 mi SE 10.4 mph - N/A   Scattered Clouds
1:55 PM 48.6 °F - 16.9 °F 28% 29.95 in 10.0 mi ESE 9.2 mph - N/A   Mostly Cloudy
2:55 PM 50.2 °F - 18.3 °F 28% 29.91 in 10.0 mi SSE 9.2 mph - N/A   Mostly Cloudy
3:55 PM 50.2 °F - 18.9 °F 29% 29.88 in 10.0 mi SSW 3.5 mph - N/A   Clear
4:55 PM 49.1 °F - 18.5 °F 30% 29.85 in 10.0 mi Calm Calm - N/A   Clear
5:55 PM 44.4 °F 41.2 °F 26.2 °F 49% 29.83 in 10.0 mi NW 5.8 mph - N/A   Clear
6:55 PM 44.2 °F 41.8 °F 23.5 °F 44% 29.81 in 10.0 mi NW 4.6 mph - N/A   Clear
7:55 PM 43.9 °F 41.3 °F 22.3 °F 42% 29.79 in 10.0 mi East 4.6 mph - N/A   Clear
8:55 PM 43.3 °F 38.6 °F 20.7 °F 40% 29.77 in 10.0 mi East 8.1 mph - N/A   Clear
9:55 PM 39.4 °F 33.2 °F 23.7 °F 54% 29.75 in 10.0 mi ESE 9.2 mph - N/A   Clear
10:55 PM 43.7 °F 37.7 °F 23.9 °F 46% 29.72 in 10.0 mi SE 11.5 mph - N/A   Clear
11:55 PM 42.1 °F 35.2 °F 22.1 °F 45% 29.71 in 10.0 mi ESE 12.7 mph - N/A   Clear